Location: Garos
(43.5000°N, 0.4667°W)
Time: 03:50:48
(UTC+00:00)

COSMOS 2428 - Pass Details

Date: 03 February 2023
Orbit: 843 x 858 km, 70.9° (Epoch: 26 March)

Event Time Altitude Azimuth Distance (km) Brightness Sun altitude
Rises 20:08:27 0° 210° (SSW) 3,390 6.1 -31.5°
Reaches altitude 10° 20:10:54 10° 213° (SSW) 2,458 5.4 -32.0°
Enters shadow 20:14:28 40° 225° (SW) 1,231 3.7 -32.6°
